Location: Newark
(36.1358°N, 115.1208°W)
Time: 00:18:03
(UTC+00:00)

Transit 4A - All Passes

Search period start: 24 February 2020 00:00
Search period end: 05 March 2020 00:00
Orbit: 872 x 973 km, 66.8° (Epoch: 23 February)

Date Brightness Start Highest point End Pass type
(mag) Time Alt. Az. Time Alt. Az. Time Alt. Az.
24 Feb - 06:56:59 10° SSW 07:02:57 83° ESE 07:08:50 10° NNE night (unlit)
24 Feb - 08:46:29 10° W 08:49:59 16° NW 08:53:27 10° N night (unlit)
24 Feb - 16:02:26 10° NNW 16:08:10 54° ENE 16:14:00 10° SE daylight
24 Feb - 17:49:52 10° WNW 17:54:03 20° WSW 17:58:18 10° SSW daylight
25 Feb - 05:23:01 10° SE 05:26:32 16° ESE 05:30:02 10° ENE night (unlit)
25 Feb - 07:06:22 10° SW 07:12:17 65° WNW 07:18:06 10° NNE night (unlit)
25 Feb - 08:58:26 10° NW 08:59:44 11° NW 09:01:03 10° NNW night (unlit)
25 Feb - 14:27:34 10° NNE 14:30:19 13° NE 14:33:05 10° ENE daylight
25 Feb - 16:11:38 10° NNW 16:17:32 81° ENE 16:23:32 10° SSE daylight
25 Feb - 18:00:50 10° W 18:03:07 12° WSW 18:05:24 10° SW daylight
26 Feb - 05:30:49 10° SSE 05:35:38 26° ESE 05:40:23 10° NE night (unlit)
26 Feb - 07:16:04 10° SW 07:21:41 43° WNW 07:27:14 10° NNE night (unlit)
26 Feb - 14:35:53 10° N 14:40:02 19° NE 14:44:12 10° E daylight
26 Feb - 16:21:00 10° NNW 16:26:50 66° WSW 16:32:45 10° SSE daylight
27 Feb - 05:39:15 10° S 05:44:47 40° ESE 05:50:13 10° NE night (unlit)
27 Feb - 07:26:06 10° WSW 07:31:11 29° NW 07:36:13 10° N night (unlit)
27 Feb - 14:44:38 10° N 14:49:37 28° NE 14:54:40 10° ESE daylight
27 Feb - 16:30:33 10° NW 16:36:03 42° WSW 16:41:40 10° S daylight
28 Feb - 05:48:08 10° SSW 05:54:00 63° ESE 05:59:47 10° NNE night (unlit)
28 Feb - 07:36:31 10° W 07:40:46 20° NW 07:44:59 10° N night (unlit)
28 Feb - 14:53:35 10° NNW 14:59:07 41° ENE 15:04:44 10° SE daylight
28 Feb - 16:40:21 10° NW 16:45:13 27° WSW 16:50:09 10° SSW daylight
29 Feb - 04:15:52 10° ESE 04:17:45 12° ESE 04:19:37 10° E night (unlit)
29 Feb - 05:57:19 10° SSW 06:03:17 85° WNW 06:09:10 10° NNE night (unlit)
29 Feb - 07:47:33 10° WNW 07:50:28 14° NW 07:53:22 10° NNW night (unlit)
29 Feb - 13:20:10 10° NNE 13:21:02 10° NE 13:21:54 10° NE visible
29 Feb - 15:02:42 10° NNW 15:08:32 62° ENE 15:14:28 10° SE daylight
29 Feb - 16:50:37 10° WNW 16:54:18 17° WSW 16:58:03 10° SW daylight
01 Mar - 04:22:43 10° SSE 04:26:47 19° ESE 04:30:49 10° ENE night (unlit)
01 Mar - 06:06:49 10° SW 06:12:38 56° WNW 06:18:23 10° NNE night (unlit)
01 Mar - 13:27:27 10° N 13:30:49 15° NE 13:34:11 10° E visible
01 Mar - 15:11:58 10° NNW 15:17:53 87° WSW 15:23:54 10° SSE daylight
02 Mar - 04:30:48 10° SSE 04:35:54 30° ESE 04:40:56 10° NE night (unlit)
02 Mar - 06:16:37 10° WSW 06:22:04 37° NW 06:27:28 10° N night (unlit)
02 Mar - 13:35:58 10° N 13:40:29 22° NE 13:45:01 10° E visible
02 Mar - 15:21:23 10° NW 15:27:09 57° WSW 15:33:00 10° S daylight
03 Mar - 04:39:24 10° S 04:45:04 47° ESE 04:50:40 10° NE night (unlit)
03 Mar - 06:26:47 10° WSW 06:31:36 25° NW 06:36:23 10° N night (unlit)
03 Mar - 13:44:48 10° N 13:50:02 32° NE 13:55:20 10° ESE daylight
03 Mar - 15:31:01 10° NW 15:36:21 36° WSW 15:41:46 10° S daylight
04 Mar - 04:48:23 10° SSW 04:54:19 74° ESE 05:00:09 10° NNE night (unlit)
04 Mar - 06:37:24 10° W 06:41:14 17° NW 06:45:02 10° N night (unlit)
04 Mar - 13:53:49 10° NNW 13:59:31 48° ENE 14:05:16 10° SE daylight
04 Mar - 15:40:57 10° NW 15:45:29 23° WSW 15:50:05 10° SSW daylight
